1491318001.03,14906,16.0,73968.0,0.21,-2.39,-2.79,0,*40
1491318002.24,14907,16.0,73966.0,0.23,-2.35,-2.75,0,*43
1491318003.45,14908,16.0,73970.5,0.23,-2.27,-2.59,0,*41
1491318004.66,14909,16.0,73970.0,0.23,-2.15,-2.59,0,*41
1491318005.9,14910,16.0,73966.8,0.23,-2.07,-2.47,0,*45
1491318007.11,14911,15.94,73964.5,0.23,-2.07,-2.39,0,*4D
1491318008.35,14912,16.0,73966.8,0.27,-2.11,-2.47,0,*44
1491318009.59,14913,16.0,73966.8,0.23,-2.07,-2.47,0,*46
1491318010.8,14914,16.0,73970.0,0.23,-2.07,-2.39,0,*48
1491318012.02,14915,16.0,73964.0,0.23,-2.07,-2.39,0,*49
1491318013.23,14916,16.0,73966.5,0.23,-2.07,-2.35,0,*46
1491318014.48,14917,16.0,73964.3,0.23,-1.99,-2.51,0,*41
1491318015.72,14918,15.94,73966.8,0.23,-2.11,-2.51,0,*4D
1491318016.93,14919,16.0,73966.3,0.23,-2.07,-2.39,0,*45
1491318018.15,14920,16.0,73964.3,0.23,-2.07,-2.39,0,*4F
1491318019.36,14921,15.94,73962.3,0.23,-2.07,-2.27,0,*41
1491318020.59,14922,16.0,73964.0,0.21,-2.03,-2.39,0,*4B
1491318021.83,14923,15.94,73964.8,0.21,-2.11,-2.31,0,*41
1491318023.07,14924,16.0,73970.3,0.21,-1.91,-2.15,0,*4B
1491318024.33,14925,16.0,73966.8,0.21,-1.99,-2.11,0,*46
1491318025.59,14926,15.94,73962.8,0.21,-1.91,-2.11,0,*4D
1491318026.83,14927,16.0,73964.3,0.19,-2.03,-2.11,0,*4F
1491318028.09,14928,16.0,73964.3,0.21,-1.99,-2.03,0,*48
1491318029.35,14929,16.0,73964.8,0.21,-1.91,-1.99,0,*41
1491318030.61,14930,16.0,73966.8,0.21,-1.91,-2.03,0,*49
1491318031.88,14931,15.94,73964.3,0.21,-1.87,-1.99,0,*4F
1491318033.14,14932,15.94,73964.0,0.21,-1.91,-1.99,0,*4B
1491318034.39,14933,15.94,73960.8,0.21,-1.91,-1.91,0,*42
1491318035.66,14934,16.0,73964.0,0.21,-1.91,-1.99,0,*4D
1491318036.89,14935,15.94,73964.8,0.21,-1.79,-1.87,0,*45
1491318038.15,14936,15.94,73960.5,0.21,-1.87,-1.99,0,*48
1491318039.41,14937,16.0,73966.5,0.21,-1.91,-2.03,0,*4E
1491318040.65,14938,16.0,73964.3,0.19,-1.87,-1.99,0,*4D
1491318041.91,14939,15.94,73964.3,0.21,-1.87,-2.03,0,*47
1491318043.13,14940,15.94,73964.8,0.19,-1.79,-1.99,0,*43
1491318044.33,14941,15.94,73962.3,0.19,-1.75,-1.91,0,*46
1491318045.54,14942,15.94,73964.5,0.21,-1.75,-1.79,0,*48
1491318046.73,14943,15.94,73962.3,0.19,-1.75,-1.79,0,*42
1491318047.96,14944,16.0,73964.8,0.21,-1.79,-1.91,0,*44
1491318049.17,14945,15.94,73960.8,0.21,-1.79,-1.79,0,*43
1491318050.38,14946,15.94,73962.5,0.21,-1.63,-1.75,0,*47
1491318051.56,14947,15.94,73960.5,0.19,-1.67,-1.79,0,*45
1491318052.77,14948,15.94,73962.3,0.21,-1.63,-1.63,0,*4E
1491318053.98,14949,15.94,73966.0,0.21,-1.67,-1.67,0,*4F
1491318055.18,14950,16.0,73964.3,0.21,-1.55,-1.55,0,*47
1491318056.39,14951,15.94,73962.8,0.21,-1.55,-1.55,0,*46
1491318057.57,14952,15.94,73960.8,0.19,-1.67,-1.63,0,*4A
1491318058.75,14953,15.94,73960.8,0.19,-1.51,-1.51,0,*4F
1491318059.96,14954,15.94,73964.0,0.21,-1.67,-1.51,0,*46
1491318061.14,14955,15.94,73964.3,0.19,-1.63,-1.51,0,*48
1491318062.33,14956,15.94,73960.8,0.19,-1.67,-1.63,0,*4E
1491318063.52,14957,15.94,73966.8,0.19,-1.79,-1.67,0,*44
1491318064.7,14958,16.0,73964.8,0.19,-1.79,-1.67,0,*4B
1491318065.89,14959,15.94,73960.0,0.19,-1.75,-1.67,0,*46
1491318067.13,14960,15.94,73962.5,0.19,-2.03,-1.99,0,*4F
1491318068.37,14961,15.94,73960.5,0.19,-2.03,-2.11,0,*4D
1491318069.61,14962,15.94,73964.3,0.19,-1.99,-1.91,0,*45
1491318070.87,14963,15.94,73960.3,0.21,-1.87,-1.91,0,*40
1491318072.08,14964,15.94,73962.3,0.19,-1.79,-1.91,0,*4D
1491318073.3,14965,15.94,73960.5,0.17,-1.79,-1.95,0,*46
1491318074.52,14966,15.94,73962.3,0.17,-1.71,-1.79,0,*4F
1491318075.75,14967,15.94,73962.3,0.17,-1.79,-1.83,0,*43
1491318076.95,14968,15.94,73960.3,0.17,-1.79,-1.79,0,*49
1491318078.16,14969,15.94,73960.5,0.17,-1.67,-1.71,0,*4F
1491318079.38,14970,15.94,73962.5,0.17,-1.71,-1.67,0,*47
1491318080.56,14971,15.94,73960.5,0.15,-1.67,-1.71,0,*44
1491318081.75,14972,15.94,73960.0,0.15,-1.67,-1.67,0,*40
1491318082.95,14973,15.94,73958.3,0.17,-1.59,-1.59,0,*43
1491318084.19,14974,15.94,73962.3,0.19,-1.43,-1.43,0,*4A
1491318085.37,14975,15.94,73964.8,0.19,-1.51,-1.51,0,*4B
1491318086.55,14976,15.94,73966.5,0.19,-1.67,-1.55,0,*49
1491318087.74,14977,15.94,73964.8,0.19,-1.67,-1.75,0,*4A
1491318088.95,14978,15.94,73964.3,0.19,-1.75,-1.87,0,*4B
1491318090.13,14979,15.94,73964.8,0.19,-1.55,-1.63,0,*42
1491318091.31,14980,15.94,73964.5,0.19,-1.55,-1.51,0,*45
1491318092.49,14981,15.94,73966.8,0.19,-1.55,-1.55,0,*40
1491318093.68,14982,15.94,73960.3,0.19,-1.67,-1.67,0,*43
1491318094.86,14983,15.94,73962.0,0.15,-1.59,-1.55,0,*42
1491318096.06,14984,15.94,73966.0,0.17,-1.67,-1.55,0,*4A
1491318097.26,14985,15.94,73966.8,0.17,-1.55,-1.59,0,*46
1491318098.44,14986,15.94,73966.5,0.15,-1.59,-1.55,0,*47
1491318099.65,14987,15.94,73968.8,0.15,-1.55,-1.47,0,*49
1491318100.85,14988,15.94,73968.3,0.17,-1.59,-1.59,0,*47
1491318102.03,14989,15.94,73970.5,0.15,-1.67,-1.59,0,*49
1491318103.27,14990,15.94,73970.0,0.17,-1.83,-1.71,0,*43
1491318104.51,14991,15.94,73968.0,0.15,-1.91,-1.83,0,*4E
1491318105.71,14992,15.94,73970.3,0.17,-1.79,-1.79,0,*4C
1491318106.93,14993,15.94,73968.3,0.17,-1.71,-1.71,0,*4D
1491318108.12,14994,15.94,73966.0,0.15,-1.71,-1.71,0,*48
1491318109.31,14995,15.94,73964.0,0.15,-1.79,-1.71,0,*41
1491318110.5,14996,15.94,73964.8,0.15,-1.67,-1.67,0,*4A
1491318111.71,14997,15.94,73960.8,0.17,-1.71,-1.59,0,*43
1491318112.89,14998,15.94,73960.5,0.15,-1.71,-1.59,0,*4E
1491318114.08,14999,15.94,73964.0,0.15,-1.79,-1.71,0,*4D
1491318115.32,15000,15.94,73966.8,0.15,-1.91,-1.83,0,*4E
1491318116.56,15001,15.94,73970.0,0.15,-2.07,-2.07,0,*4C
1491318117.77,15002,15.94,73962.3,0.15,-2.15,-2.07,0,*4C
1491318119.04,15003,15.94,73964.5,0.13,-1.99,-1.87,0,*47
1491318120.31,15004,15.94,73968.0,0.13,-1.99,-1.83,0,*44
1491318121.57,15005,15.94,73968.5,0.11,-1.99,-1.87,0,*43
1491318122.8,15006,15.94,73964.8,0.15,-2.07,-1.95,0,*43
1491318124.02,15007,15.94,73966.3,0.15,-1.91,-1.71,0,*44
1491318125.28,15008,15.94,73968.8,0.13,-1.87,-1.83,0,*47
1491318126.52,15009,15.94,73970.5,0.13,-1.99,-1.75,0,*40
1491318127.79,15010,15.94,73968.5,0.13,-2.11,-1.87,0,*46
1491318129.03,15011,15.94,73970.3,0.13,-2.19,-1.99,0,*40
1491318130.3,15012,15.94,73966.8,0.13,-2.11,-1.99,0,*4B
1491318131.56,15013,15.94,73968.8,0.11,-2.11,-1.99,0,*48
1491318132.82,15014,15.94,73964.8,0.13,-2.11,-1.95,0,*41
1491318134.06,15015,15.94,73968.0,0.13,-2.19,-1.99,0,*44
1491318135.3,15016,15.94,73970.8,0.13,-2.19,-2.07,0,*43
1491318136.54,15017,15.94,73966.5,0.13,-2.19,-2.07,0,*42
1491318137.77,15018,15.94,73966.5,0.13,-2.23,-2.11,0,*43
1491318139.01,15019,15.94,73970.5,0.13,-2.47,-2.27,0,*45
1491318140.21,15020,15.94,73968.0,0.11,-2.39,-2.27,0,*44
1491318141.41,15021,15.94,73966.5,0.11,-2.23,-2.19,0,*43
1491318142.63,15022,15.94,73966.5,0.11,-2.19,-1.95,0,*4E
1491318143.89,15023,15.94,73968.0,0.13,-2.07,-1.95,0,*42
1491318145.16,15024,15.94,73968.5,0.13,-2.07,-1.87,0,*46
1491318146.4,15025,15.94,73966.8,0.13,-1.87,-1.75,0,*41
1491318147.66,15026,15.94,73968.3,0.11,-1.99,-1.83,0,*46
1491318148.92,15027,15.94,73968.8,0.13,-1.95,-1.87,0,*4D
1491318150.17,15028,15.94,73970.8,0.11,-2.11,-1.95,0,*4C
1491318151.44,15029,15.94,73966.8,0.11,-2.11,-1.99,0,*41
1491318152.69,15030,15.94,73970.5,0.11,-2.07,-1.95,0,*42
1491318153.95,15031,15.94,73970.0,0.11,-2.11,-2.07,0,*4C
1491318155.16,15032,15.94,73970.8,0.13,-2.27,-2.19,0,*47
1491318156.37,15033,15.94,73972.5,0.13,-2.35,-2.23,0,*4C
1491318157.58,15034,15.94,73970.0,0.13,-2.19,-2.19,0,*4C
1491318158.79,15035,15.94,73968.0,0.11,-2.27,-2.19,0,*42
1491318160.02,15036,15.94,73968.5,0.13,-2.19,-2.07,0,*41
1491318161.25,15037,15.94,73970.8,0.11,-2.19,-2.11,0,*45
1491318162.48,15038,15.94,73968.0,0.11,-2.23,-2.11,0,*43
1491318163.69,15039,15.94,73972.0,0.13,-2.19,-2.19,0,*41
1491318164.89,15040,15.94,73970.8,0.11,-2.19,-2.19,0,*4D
1491318166.1,15041,15.94,73970.3,0.13,-2.19,-2.19,0,*4E
1491318167.31,15042,15.94,73970.5,0.11,-2.23,-2.23,0,*4F
1491318168.57,15043,15.94,73966.5,0.11,-2.11,-2.07,0,*49
1491318169.84,15044,15.94,73966.0,0.11,-1.99,-2.07,0,*4D
1491318171.11,15045,15.94,73968.3,0.13,-2.11,-1.99,0,*49
1491318172.38,15046,15.94,73968.8,0.13,-1.99,-2.07,0,*4D
1491318173.58,15047,15.94,73966.3,0.11,-2.19,-2.19,0,*4A
1491318174.83,15048,15.94,73968.0,0.11,-1.95,-1.95,0,*45
1491318176.1,15049,15.94,73966.3,0.11,-1.99,-1.99,0,*44
1491318177.37,15050,15.94,73968.3,0.13,-1.99,-2.07,0,*4A
1491318178.63,15051,15.94,73966.5,0.13,-2.11,-2.11,0,*4F
1491318179.9,15052,15.94,73968.5,0.11,-1.99,-2.07,0,*4A
1491318181.15,15053,15.94,73970.8,0.11,-1.83,-1.95,0,*48
1491318182.39,15054,15.94,73972.3,0.13,-1.71,-1.83,0,*47
1491318183.63,15055,15.94,73966.5,0.11,-1.71,-1.87,0,*40
1491318184.83,15056,15.94,73970.0,0.11,-1.59,-1.71,0,*40
1491318186.04,15057,15.94,73970.0,0.11,-1.59,-1.71,0,*41
1491318187.24,15058,15.94,73964.3,0.11,-1.59,-1.71,0,*4E
1491318188.45,15059,15.94,73964.8,0.13,-1.59,-1.59,0,*47
1491318189.68,15060,15.94,73964.5,0.11,-1.47,-1.59,0,*40
1491318190.88,15061,15.94,73962.5,0.13,-1.51,-1.59,0,*44
1491318192.08,15062,15.94,73970.5,0.13,-1.59,-1.59,0,*4F
1491318193.29,15063,15.94,73966.5,0.13,-1.51,-1.51,0,*4E
1491318194.5,15064,15.94,73964.0,0.13,-1.63,-1.63,0,*49
1491318195.71,15065,15.94,73970.0,0.13,-1.63,-1.63,0,*48
1491318196.93,15066,15.94,73968.0,0.13,-1.63,-1.71,0,*48
1491318198.14,15067,15.94,73970.8,0.13,-1.71,-1.63,0,*49
1491318199.35,15068,15.94,73966.3,0.13,-1.59,-1.51,0,*4D
1491318200.55,15069,15.94,73970.0,0.13,-1.59,-1.59,0,*44
1491318201.76,15070,15.94,73964.5,0.13,-1.63,-1.63,0,*4C
1491318202.96,15071,15.94,73968.8,0.11,-1.59,-1.59,0,*4F
1491318204.16,15072,15.94,73964.8,0.13,-1.59,-1.59,0,*4E
1491318205.38,15073,15.94,73964.3,0.13,-1.71,-1.63,0,*4C
1491318206.58,15074,15.94,73968.3,0.11,-1.63,-1.63,0,*4A
1491318207.78,15075,15.94,73966.8,0.11,-1.59,-1.59,0,*4B
1491318208.98,15076,15.94,73968.0,0.11,-1.59,-1.63,0,*41
1491318210.18,15077,15.94,73970.5,0.11,-1.59,-1.59,0,*49
1491318211.38,15078,15.94,73964.5,0.13,-1.59,-1.59,0,*44
1491318212.62,15079,15.88,73970.0,0.13,-1.47,-1.51,0,*42
1491318213.86,15080,15.94,73968.5,0.11,-1.47,-1.51,0,*46
1491318215.1,15081,15.94,73970.0,0.13,-1.33,-1.35,0,*44
1491318216.3,15082,15.94,73968.0,0.11,-1.25,-1.25,0,*43
1491318217.52,15083,15.94,73968.3,0.13,-1.21,-1.21,0,*40
1491318218.72,15084,15.94,73968.5,0.11,-1.33,-1.33,0,*45
1491318219.95,15085,15.94,73970.0,0.11,-1.25,-1.13,0,*41
1491318221.2,15086,15.94,73970.3,0.11,-1.13,-1.13,0,*47
1491318222.46,15087,15.94,73968.8,0.13,-1.01,-1.09,0,*4C
1491318223.72,15088,15.94,73964.8,0.13,-1.09,-1.09,0,*4B
1491318224.98,15089,15.94,73966.5,0.13,-1.13,-1.09,0,*41
1491318226.24,15090,15.94,73966.5,0.13,-1.13,-1.09,0,*49
1491318227.49,15091,15.94,73960.0,0.13,-0.89,-0.97,0,*4C
1491318228.75,15092,15.94,73960.3,0.13,-1.01,-1.01,0,*40
1491318230.0,15093,15.94,73962.8,0.13,-1.01,-0.97,0,*7F
1491318231.26,15094,15.94,73958.8,0.13,-1.01,-1.01,0,*46
1491318232.52,15095,15.94,73960.0,0.13,-1.01,-1.01,0,*47
1491318233.77,15096,15.88,73958.3,0.13,-0.89,-0.89,0,*44
1491318234.99,15097,15.94,73964.8,0.15,-0.97,-0.93,0,*47
1491318236.23,15098,15.94,73960.0,0.15,-1.05,-0.97,0,*76
1491318237.48,15099,15.94,73962.8,0.17,-1.05,-0.97,0,*75
1491318238.71,15100,15.94,73966.8,0.15,-1.05,-0.97,0,*76
1491318239.9,15101,15.94,73964.3,0.15,-1.17,-1.17,0,*4D
1491318241.12,15102,15.94,73964.0,0.15,-1.17,-1.09,0,*41
1491318242.33,15103,15.94,73966.8,0.15,-1.21,-1.09,0,*45
1491318243.54,15104,15.94,73970.5,0.17,-1.29,-1.17,0,*47
1491318244.75,15105,15.88,73964.0,0.17,-1.33,-1.17,0,*4D
1491318245.96,15106,15.88,73964.3,0.15,-1.47,-1.17,0,*4F
1491318247.16,15107,15.94,73960.3,0.15,-1.67,-1.09,0,*43
1491318248.35,15108,15.94,73960.8,0.15,-1.79,-1.17,0,*4C
1491318249.56,15109,15.88,73964.3,0.17,-2.15,-1.21,0,*43
1491318250.74,15110,15.88,73968.0,0.15,-2.31,-1.29,0,*47
1491318251.95,15111,15.94,73966.0,0.15,-2.31,-1.43,0,*4A
1491318253.21,15112,15.94,73966.8,0.17,-2.55,-1.47,0,*4D
1491318254.42,15113,15.94,73964.5,0.17,-2.79,-1.71,0,*47
1491318255.66,15114,15.94,73964.8,0.17,-2.71,-1.71,0,*48
1491318256.87,15115,15.94,73966.0,0.19,-3.03,-1.91,0,*4D
1491318258.08,15116,15.88,73960.8,0.17,-3.31,-2.23,0,*4B
1491318259.29,15117,15.88,73964.5,0.17,-2.83,-2.35,0,*45
1491318260.5,15118,15.94,73968.0,0.19,-2.63,-2.15,0,*48
1491318261.71,15119,15.94,73966.8,0.19,-2.75,-2.19,0,*42
1491318262.92,15120,15.94,73962.3,0.19,-2.75,-2.19,0,*48
1491318264.14,15121,15.88,73964.5,0.19,-3.27,-2.63,0,*42
1491318265.35,15122,15.94,73966.3,0.19,-2.87,-2.67,0,*4E
1491318266.57,15123,15.94,73966.8,0.19,-2.79,-2.63,0,*4A
1491318267.81,15124,15.94,73958.3,0.19,-2.11,-2.51,0,*42
1491318268.99,15125,15.88,73962.0,0.19,-1.63,-2.19,0,*49
1491318270.19,15126,15.94,73962.3,0.19,-1.17,-1.67,0,*43
1491318271.39,15127,15.88,73956.0,0.19,-1.17,-1.67,0,*42
1491318272.63,15128,15.88,73962.0,0.19,-1.05,-1.35,0,*49
1491318273.85,15129,15.88,73960.8,0.21,-0.93,-1.17,0,*7D
1491318275.1,15130,15.94,73964.8,0.21,-0.93,-1.05,0,*76
1491318276.33,15131,15.94,73960.0,0.21,-0.81,-0.93,0,*4A
1491318277.53,15132,15.94,73958.8,0.21,-0.81,-0.81,0,*4A
1491318278.73,15133,15.94,73960.0,0.19,-0.81,-0.89,0,*48
1491318279.91,15134,15.94,73960.0,0.19,-0.81,-0.81,0,*47
1491318281.09,15135,15.94,73958.3,0.19,-0.69,-0.77,0,*49
1491318282.29,15136,15.88,73956.5,0.21,-0.65,-0.69,0,*42
1491318283.47,15137,15.88,73960.5,0.19,-0.57,-0.69,0,*49
1491318284.67,15138,15.94,73960.5,0.21,-0.65,-0.77,0,*43
1491318285.87,15139,15.94,73960.0,0.21,-0.77,-0.81,0,*48
1491318287.07,15140,15.94,73958.5,0.21,-0.65,-0.81,0,*45
1491318288.26,15141,15.94,73960.8,0.21,-0.65,-0.65,0,*4E
1491318289.46,15142,15.88,73960.8,0.21,-0.57,-0.57,0,*4D
1491318290.66,15143,15.94,73962.3,0.21,-0.57,-0.57,0,*4C
1491318291.84,15144,15.88,73958.8,0.19,-0.49,-0.53,0,*4B
1491318293.04,15145,15.94,73964.3,0.21,-0.49,-0.49,0,*4A
1491318294.24,15146,15.94,73966.8,0.21,-0.53,-0.53,0,*49
1491318295.42,15147,15.94,73962.8,0.19,-0.53,-0.49,0,*48
1491318296.61,15148,15.94,73962.0,0.21,-0.49,-0.53,0,*4C
1491318297.81,15149,15.94,73962.8,0.21,-0.53,-0.53,0,*46
1491318299.01,15150,15.88,73962.8,0.21,-0.57,-0.53,0,*4A
1491318300.19,15151,15.88,73964.5,0.19,-0.65,-0.53,0,*41
1491318301.39,15152,15.88,73958.5,0.21,-0.81,-0.77,0,*45
1491318302.62,15153,15.88,73962.8,0.21,-0.89,-0.69,0,*43
1491318303.82,15154,15.88,73956.3,0.21,-0.81,-0.77,0,*43
1491318305.02,15155,15.88,73960.8,0.21,-0.81,-0.69,0,*4D
1491318306.22,15156,15.88,73958.8,0.21,-0.77,-0.69,0,*47
1491318307.43,15157,15.94,73962.5,0.21,-0.69,-0.77,0,*46
1491318308.65,15158,15.88,73960.3,0.21,-0.89,-0.77,0,*47
1491318309.86,15159,15.94,73962.0,0.19,-0.89,-0.69,0,*42
1491318311.08,15160,15.88,73960.8,0.21,-0.89,-0.69,0,*43
1491318312.29,15161,15.88,73970.5,0.23,-1.01,-0.73,0,*7A
1491318313.48,15162,15.88,73968.3,0.27,-1.17,-0.73,0,*7A
1491318314.66,15163,15.88,73962.8,0.23,-1.51,-0.77,0,*79
1491318315.86,15164,15.94,73968.8,0.23,-1.59,-1.09,0,*4E
1491318317.1,15165,15.88,73958.5,0.23,-1.39,-1.13,0,*42
1491318318.3,15166,15.88,73962.0,0.23,-1.21,-0.89,0,*7A
1491318319.53,15167,15.94,73966.5,0.23,-1.13,-0.97,0,*75
1491318320.73,15168,15.88,73956.5,0.27,-0.85,-0.81,0,*47
1491318321.91,15169,15.88,73952.8,0.23,-0.65,-0.73,0,*41
1491318323.09,15170,15.88,73958.3,0.23,-0.49,-0.49,0,*4E
1491318324.26,15171,15.88,73956.0,0.23,-0.65,-0.61,0,*4B
1491318325.44,15172,15.88,73964.3,0.23,-0.73,-0.73,0,*4C
1491318326.62,15173,15.88,73962.8,0.23,-0.77,-0.73,0,*49
1491318327.83,15174,15.88,73966.0,0.23,-0.85,-0.77,0,*47
1491318329.05,15175,15.88,73960.8,0.27,-0.97,-0.85,0,*4C
1491318330.27,15176,15.88,73962.3,0.27,-0.93,-0.85,0,*4B
1491318331.49,15177,15.88,73966.3,0.27,-0.97,-0.93,0,*49
1491318332.72,15178,15.94,73964.8,0.23,-0.97,-1.01,0,*78
1491318333.95,15179,15.88,73962.0,0.23,-0.89,-0.85,0,*4B
1491318335.17,15180,15.88,73966.5,0.23,-0.85,-0.97,0,*42
1491318336.37,15181,15.94,73964.8,0.23,-0.77,-0.85,0,*4D
1491318337.56,15182,15.88,73966.3,0.23,-0.77,-0.85,0,*4E
1491318338.74,15183,15.88,73966.3,0.27,-0.81,-0.81,0,*46
1491318339.94,15184,15.88,73960.0,0.23,-0.73,-0.85,0,*4C
1491318341.12,15185,15.88,73960.5,0.23,-0.65,-0.61,0,*40
1491318342.28,15186,15.94,73964.5,0.27,-0.61,-0.65,0,*47
1491318343.45,15187,15.88,73960.3,0.27,-0.49,-0.69,0,*40
1491318344.62,15188,15.88,73960.0,0.27,-0.61,-0.61,0,*4D
1491318345.79,15189,15.88,73962.0,0.23,-0.65,-0.65,0,*48
1491318346.97,15190,15.88,73962.8,0.27,-0.57,-0.69,0,*49
1491318348.14,15191,15.88,73960.8,0.27,-0.57,-0.61,0,*40
1491318349.32,15192,15.88,73958.0,0.27,-0.49,-0.49,0,*46
1491318350.51,15193,15.88,73962.3,0.29,-0.61,-0.69,0,*41
1491318351.7,15194,15.88,73962.5,0.29,-0.61,-0.61,0,*4E
1491318352.89,15195,15.88,73962.3,0.29,-0.61,-0.61,0,*4F
1491318354.08,15196,15.88,73962.3,0.29,-0.61,-0.61,0,*4C
1491318355.28,15197,15.88,73960.3,0.29,-0.69,-0.73,0,*46
1491318356.48,15198,15.88,73956.3,0.29,-0.69,-0.69,0,*42
1491318357.68,15199,15.88,73956.8,0.29,-0.69,-0.73,0,*48
1491318358.88,15200,15.88,73962.5,0.29,-0.69,-0.61,0,*48
1491318360.08,15201,15.88,73966.3,0.29,-0.69,-0.61,0,*49
1491318361.28,15202,15.88,73964.5,0.29,-0.69,-0.69,0,*42
1491318362.48,15203,15.94,73964.0,0.29,-0.73,-0.73,0,*43
1491318363.69,15204,15.88,73956.5,0.29,-0.73,-0.81,0,*49
1491318364.86,15205,15.88,73960.8,0.31,-0.73,-0.69,0,*47
1491318366.06,15206,15.88,73966.3,0.29,-0.57,-0.53,0,*42
1491318367.27,15207,15.88,73964.8,0.29,-0.57,-0.49,0,*48
1491318368.44,15208,15.88,73964.0,0.31,-0.45,-0.45,0,*41
1491318369.64,15209,15.88,73960.5,0.29,-0.49,-0.57,0,*46
1491318370.83,15210,15.88,73962.5,0.29,-0.61,-0.57,0,*44
1491318372.03,15211,15.88,73964.3,0.29,-0.61,-0.49,0,*4A
1491318373.2,15212,15.88,73962.8,0.31,-0.53,-0.45,0,*4D
1491318374.37,15213,15.88,73956.8,0.31,-0.57,-0.53,0,*4F
1491318375.55,15214,15.88,73964.8,0.31,-0.65,-0.53,0,*49
1491318376.72,15215,15.88,73958.5,0.31,-0.77,-0.77,0,*4D
1491318377.95,15216,15.88,73958.3,0.31,-1.01,-0.93,0,*74
1491318379.2,15217,15.88,73958.3,0.29,-1.09,-1.09,0,*46
1491318380.41,15218,15.88,73962.5,0.31,-0.93,-0.93,0,*40
1491318381.64,15219,15.88,73962.3,0.29,-0.85,-0.73,0,*41
1491318382.84,15220,15.88,73960.5,0.31,-0.89,-0.77,0,*4A
1491318384.09,15221,15.88,73962.8,0.29,-0.85,-0.85,0,*43
1491318385.27,15222,15.88,73962.0,0.31,-0.81,-0.77,0,*40
1491318386.5,15223,15.88,73962.3,0.31,-1.01,-1.01,0,*48
1491318387.76,15224,15.88,73960.5,0.29,-1.05,-1.05,0,*46
1491318389.0,15225,15.88,73958.5,0.29,-0.93,-0.93,0,*47
1491318390.18,15226,15.88,73956.3,0.31,-0.81,-0.69,0,*4B
1491318391.38,15227,15.88,73956.0,0.31,-0.89,-0.77,0,*4D
1491318392.61,15228,15.88,73958.5,0.31,-1.01,-0.89,0,*72
1491318393.83,15229,15.88,73960.5,0.33,-0.89,-0.81,0,*48
1491318395.01,15230,15.88,73958.3,0.31,-0.81,-0.77,0,*43
1491318396.18,15231,15.88,73952.8,0.31,-0.81,-0.81,0,*4B
1491318397.44,15232,15.88,73958.3,0.29,-1.09,-1.05,0,*4D
1491318398.67,15233,15.88,73956.8,0.31,-1.13,-1.05,0,*4E
1491318399.89,15234,15.88,73958.0,0.31,-0.93,-0.93,0,*4E
1491318401.14,15235,15.88,73956.5,0.29,-1.05,-0.97,0,*7C
1491318402.36,15236,15.88,73956.5,0.31,-0.93,-0.93,0,*4C
1491318403.54,15237,15.88,73954.5,0.31,-0.81,-0.77,0,*44
1491318404.72,15238,15.88,73952.8,0.31,-0.77,-0.77,0,*42
1491318405.89,15239,15.88,73954.5,0.31,-0.69,-0.57,0,*4E
1491318407.09,15240,15.88,73958.5,0.29,-0.81,-0.61,0,*4A
1491318408.29,15241,15.88,73958.3,0.29,-0.73,-0.81,0,*48
1491318409.47,15242,15.88,73952.0,0.31,-0.77,-0.77,0,*4F
1491318410.64,15243,15.88,73956.8,0.31,-0.77,-0.77,0,*4E
1491318411.82,15244,15.88,73958.8,0.31,-0.69,-0.69,0,*49
1491318413.0,15245,15.88,73958.3,0.31,-0.81,-0.81,0,*48
1491318414.17,15246,15.88,73954.5,0.31,-0.81,-0.77,0,*42
1491318415.35,15247,15.88,73954.0,0.31,-0.81,-0.77,0,*43
1491318416.53,15248,15.88,73958.3,0.31,-0.81,-0.77,0,*4C
1491318417.73,15249,15.88,73952.5,0.33,-0.77,-0.69,0,*49
1491318418.9,15250,15.88,73958.0,0.31,-0.77,-0.65,0,*4F
1491318420.1,15251,15.88,73956.3,0.31,-0.89,-0.81,0,*45
1491318421.3,15252,15.88,73956.0,0.31,-0.89,-0.81,0,*46
1491318422.5,15253,15.88,73956.3,0.33,-0.81,-0.81,0,*4D
1491318423.72,15254,15.88,73954.5,0.33,-0.89,-0.81,0,*42
1491318424.96,15255,15.88,73954.5,0.33,-0.89,-0.89,0,*4B
1491318426.16,15256,15.88,73956.8,0.33,-0.81,-0.77,0,*41
1491318427.36,15257,15.88,73954.5,0.33,-0.69,-0.69,0,*49
1491318428.55,15258,15.88,73956.8,0.33,-0.65,-0.57,0,*47
1491318429.75,15259,15.88,73956.8,0.33,-0.65,-0.57,0,*46
1491318430.95,15260,15.88,73962.5,0.33,-0.65,-0.57,0,*4C
1491318432.12,15261,15.88,73962.3,0.35,-0.65,-0.65,0,*4A
1491318433.31,15262,15.88,73962.8,0.33,-0.69,-0.69,0,*4F
1491318434.51,15263,15.88,73960.3,0.33,-0.57,-0.57,0,*4E
1491318435.7,15264,15.88,73958.5,0.33,-0.65,-0.65,0,*49
1491318436.9,15265,15.88,73960.3,0.33,-0.65,-0.57,0,*49
1491318438.09,15266,15.88,73958.5,0.33,-0.65,-0.65,0,*4B
1491318439.28,15267,15.88,73958.5,0.33,-0.65,-0.65,0,*4A
1491318440.45,15268,15.88,73956.8,0.35,-0.61,-0.61,0,*43
1491318441.65,15269,15.88,73958.0,0.33,-0.69,-0.57,0,*49
1491318442.82,15270,15.88,73958.3,0.35,-0.65,-0.65,0,*4A
1491318443.99,15271,15.88,73960.0,0.35,-0.65,-0.65,0,*4B
1491318445.19,15272,15.88,73958.0,0.33,-0.69,-0.69,0,*4E
1491318446.38,15273,15.88,73954.0,0.33,-0.69,-0.69,0,*4F
1491318447.58,15274,15.88,73956.5,0.33,-0.69,-0.65,0,*44
1491318448.75,15275,15.88,73956.0,0.35,-0.65,-0.61,0,*4B
1491318449.93,15276,15.88,73956.3,0.35,-0.53,-0.53,0,*4C
1491318451.11,15277,15.88,73954.3,0.35,-0.41,-0.49,0,*45
1491318452.29,15278,15.88,73948.8,0.35,-0.41,-0.41,0,*42
1491318453.48,15279,15.88,73954.5,0.35,-0.41,-0.41,0,*43
1491318454.68,15280,15.88,73954.8,0.33,-0.53,-0.45,0,*44
1491318455.87,15281,15.88,73954.8,0.33,-0.57,-0.53,0,*46
1491318457.05,15282,15.88,73950.0,0.35,-0.41,-0.37,0,*46
1491318458.24,15283,15.88,73958.8,0.35,-0.41,-0.33,0,*43
1491318459.42,15284,15.88,73956.5,0.35,-0.41,-0.37,0,*40
1491318460.61,15285,15.88,73962.0,0.35,-0.41,-0.41,0,*40
1491318461.8,15286,15.88,73962.3,0.33,-0.53,-0.53,0,*45
1491318462.97,15287,15.88,73960.3,0.35,-0.61,-0.61,0,*42
1491318464.13,15288,15.88,73960.8,0.35,-0.61,-0.61,0,*4D
1491318465.31,15289,15.88,73962.8,0.35,-0.65,-0.53,0,*49
1491318466.48,15290,15.88,73962.5,0.35,-0.61,-0.53,0,*45
1491318467.65,15291,15.88,73960.0,0.35,-0.53,-0.53,0,*45
1491318468.82,15292,15.88,73960.5,0.35,-0.61,-0.53,0,*47
1491318469.99,15293,15.88,73964.0,0.35,-0.65,-0.53,0,*42
1491318471.19,15294,15.88,73960.0,0.37,-0.65,-0.61,0,*46
1491318472.38,15295,15.88,73960.8,0.37,-0.65,-0.53,0,*46
1491318473.57,15296,15.88,73960.0,0.37,-0.49,-0.53,0,*4B
1491318474.75,15297,15.88,73960.8,0.39,-0.49,-0.49,0,*4F
1491318475.94,15298,15.88,73962.5,0.37,-0.65,-0.61,0,*4A
1491318477.11,15299,15.88,73956.8,0.39,-0.57,-0.57,0,*41
1491318478.3,15300,15.88,73956.5,0.37,-0.65,-0.61,0,*4A
1491318479.5,15301,15.88,73962.3,0.37,-0.77,-0.65,0,*4C
1491318480.69,15302,15.88,73956.8,0.39,-0.93,-0.81,0,*41
1491318481.89,15303,15.88,73952.8,0.39,-0.85,-0.81,0,*47
1491318483.1,15304,15.88,73960.0,0.39,-0.93,-0.93,0,*44
1491318484.35,15305,15.88,73956.5,0.37,-0.97,-0.89,0,*44
1491318485.57,15306,15.88,73958.8,0.39,-0.85,-0.93,0,*41
1491318486.76,15307,15.88,73956.8,0.39,-0.73,-0.85,0,*4E
1491318487.94,15308,15.88,73958.0,0.39,-0.73,-0.73,0,*48
1491318489.18,15309,15.88,73962.3,0.37,-0.85,-0.85,0,*47
1491318490.36,15310,15.88,73956.5,0.39,-0.69,-0.69,0,*41
1491318491.54,15311,15.88,73958.5,0.39,-0.81,-0.73,0,*4D
1491318492.7,15312,15.88,73952.3,0.39,-0.61,-0.69,0,*4B
1491318493.87,15313,15.88,73956.3,0.39,-0.61,-0.69,0,*4A
1491318495.04,15314,15.88,73958.8,0.39,-0.57,-0.57,0,*45
1491318496.21,15315,15.88,73954.8,0.39,-0.57,-0.61,0,*41
1491318497.39,15316,15.88,73958.5,0.39,-0.57,-0.49,0,*48
1491318498.57,15317,15.88,73958.8,0.39,-0.57,-0.49,0,*49
1491318499.74,15318,15.88,73958.8,0.39,-0.49,-0.49,0,*49
1491318500.91,15319,15.88,73958.5,0.39,-0.57,-0.57,0,*48
1491318502.1,15320,15.88,73956.8,0.37,-0.65,-0.61,0,*48
1491318503.28,15321,15.88,73962.0,0.39,-0.49,-0.49,0,*43
1491318504.46,15322,15.88,73960.3,0.37,-0.61,-0.61,0,*4E
1491318505.64,15323,15.88,73962.5,0.39,-0.57,-0.45,0,*42
1491318506.8,15324,15.88,73960.3,0.39,-0.61,-0.57,0,*43
1491318507.98,15325,15.88,73956.5,0.39,-0.57,-0.49,0,*48
1491318509.15,15326,15.88,73954.5,0.39,-0.57,-0.57,0,*44
1491318510.35,15327,15.88,73958.5,0.41,-0.53,-0.53,0,*4A